Regional Weather Roundup
Issued by NWS Upton, NY

Current Version | Previous Version | Graphics & Text | Print | Product List | Glossary Off
Versions: 1 2 3 4 5 6 7 8 9 10 11 12 13 14 15 16 17 18 19 20 21 22 23 24 25 26 27 28 29 30 31 32 33 34 35 36 37 38 39 40 41 42 43 44 45 46 47 48 49 50

053
ASUS41 KOKX 270304
RWROKX

REGIONAL WEATHER ROUNDUP
NATIONAL WEATHER SERVICE NEW YORK NY
1100 PM EDT MON SEP 26 2016

NOTE: "FAIR" INDICATES FEW OR NO CLOUDS BELOW 12,000 FEET WITH NO
SIGNIFICANT WEATHER AND/OR OBSTRUCTIONS TO VISIBILITY.

NYZ071-072-176-178-NJZ106-104-270400-
NEW YORK CITY METRO AREA

CITY           SKY/WX    TMP DP  RH WIND       PRES   REMARKS
Central Park   CLOUDY    68  56  65 VRB3      30.04F
LaGuardia APRT CLOUDY    70  58  65 S13       30.01F
Kennedy INTL   CLOUDY    69  59  70 S15       30.03F
Newark/Liberty CLOUDY    68  56  65 S6        30.01F
Bronx Bot Gard   N/A     66  55  68 SE3       30.01F
Wall St Helipt CLOUDY    70  61  73 SW7       30.03F
Teterboro      CLOUDY    68  55  63 S9        30.00F
$$

NYZ177-179-078>081-270400-
LONG ISLAND NEW YORK

CITY           SKY/WX    TMP DP  RH WIND       PRES   REMARKS
Farmingdale    CLOUDY    68  58  70 S13       30.04F
MacArthur/ISP  CLOUDY    68  57  68 S10       30.04F
Shirley        CLOUDY    67  57  70 S13       30.05F
Riverhead      NOT AVBL
Westhampton    CLOUDY    67  55  65 S9G22     30.06F
Southampton      N/A     66  57  72 S14       30.01F
Bridgehampton    N/A     64  55  72 SW2       29.91F
East Hampton   CLOUDY    65  54  65 S10G16    30.06F
Montauk          N/A     66  54  65 S10       30.07F
$$

NYZ052-065-067-270400-
HUDSON VALLEY

CITY           SKY/WX    TMP DP  RH WIND       PRES   REMARKS
White Plains   CLOUDY    66  55  67 S9        30.01F
Newburgh       NOT AVBL
Montgomery     CLOUDY    65  51  60 SW6       29.99F
Poughkeepsie   CLOUDY    65  49  56 S5        29.99F
Albany         CLOUDY    64  50  60 S10       29.94F
$$

NJZ001-105-106-008-010-013-015-019>022-104-270400-
NEW JERSEY

CITY           SKY/WX    TMP DP  RH WIND       PRES   REMARKS
Newark/Liberty CLOUDY    68  56  65 S6        30.01F
Teterboro      CLOUDY    68  55  63 S9        30.00F
Caldwell       CLOUDY    67  54  63 S6        30.01F
Morristown     CLOUDY    64  55  72 S5        30.02F
Somerville     CLOUDY    66  54  65 SE6       29.98F
Linden         NOT AVBL
Sussex         CLOUDY    64  53  67 S7        29.99F
Abdover          N/A     63  52  67 VRB3      30.01F
Trenton        CLOUDY    66  56  70 S7        30.00F
Millville      LGT RAIN  68  64  87 VRB3      30.02F
Atlantic City  CLOUDY    72  62  71 S8        30.03S
Wrightstown    CLOUDY    64  58  79 SE3       29.98F
Toms River     CLOUDY    68  61  78 S5        30.03
Belmar         CLOUDY    68  61  78 S3        30.03F
$$

PAZ047>061-062-071-270400-
EASTERN PENNSYLVANIA

CITY           SKY/WX    TMP DP  RH WIND       PRES   REMARKS
Philadelphia   CLOUDY    69  58  67 S9        30.00F
Allentown      CLOUDY    67  53  61 SE3       29.99F
Scranton       CLOUDY    63  53  70 SW8       29.98S
$$

CTZ002-004>006-009-010-012-RIZ004-006-007-MAZ004-011-015-270400-
SOUTHERN NEW ENGLAND
 IN CT

CITY           SKY/WX    TMP DP  RH WIND       PRES   REMARKS
Bradley INTL   CLOUDY    62  51  67 S8        30.02F
Hartford       CLOUDY    62  53  72 S9        30.02F
Danbury        CLOUDY    63  53  70 S8        30.03F
Wtrbury/Oxford   N/A     63  48  59 S7        30.05F
Bridgeport     NOT AVBL
Meriden        CLOUDY    67  51  56 S8        30.03F
New Haven      CLOUDY    67  54  63 S15G23    30.04F
Chester        CLOUDY    64  52  63 S9G16     30.05F
Groton         CLOUDY    68  54  60 S18       30.04F
Wilimantic     CLOUDY    61  52  72 S3        30.05F

 IN RI

CITY           SKY/WX    TMP DP  RH WIND       PRES   REMARKS
Providence     MOCLDY    57  49  74 S3        30.06F
Block Island   MOCLDY    65  51  60 SW15      30.07F
Westerly       CLOUDY    67  50  54 S13       30.06F
 IN MA

CITY           SKY/WX    TMP DP  RH WIND       PRES   REMARKS
Boston         CLOUDY    58  49  72 S12       30.05F
Worcester      CLOUDY    56  48  74 S9        30.03F
Westfield      CLOUDY    61  51  70 S10       30.00F
Provincetown   CLOUDY    60  52  74 SW13      30.08S
Nantucket      CLOUDY    62  48  60 S15       30.09F
$$

ANZ330-335-338-340-345-350-353-355-270400-
COASTAL MARINE OBSERVATIONS


STATION/POSITION TIME  SKY/WX   TEMP    WIND        PRES    VSBY  WAVE
                                AIR SEA DIR/SP/G                  HT/PER
                 (UTC)          (F)     (DEG/KT/KT) (MB)    (MI)  (FT/S)
NY HARB ENTRANCE 0150            69 71  190/ 17/ 21 1017.6          4/ 4
20S FIRE ISLAND  0150            68 69  170/ 17/ 21 1017.4          3/ 4
GREAT SOUTH BAY  0215            68 70  180/ 16/ 19   N/A
23 SSW MONTAUK P 0150            67 68  200/ 17/ 21 1018.5          3/ 4
15 E BARNEGAT LI 0230               70                N/A           4/ 4
HUDSON CANYON    0150            69 69              1018.6          3/ 4
KINGS POINT      0230            69 72              1016.7
EXECUTION ROCKS  0245            69     170/ 10/ 14   N/A
CENTRAL LI SOUND 0230            67 72  200/ 14/ 17   N/A           2/ 3
EASTERN LI SOUND NOT AVBL
ROBBINS REEF     0230            68     180/ 13/ 16 1016.9
$$


>>>>>>>>>>>>>>>>>>>>>>>>>>>> KEY <<<<<<<<<<<<<<<<<<<<<<<<<<<
>                                                          <
>     SKY/WX - Sky Condition/Present Weather               <
>     TMP    - Temperature in Fahrenheit                   <
>     DP     - Dew Point in Fahrenheit                     <
>     RH     - Relative Humidity in Percent                <
>     WIND   - Direction (from) and Speed in MPH           <
>     PRES   - Mean Sea Level Pressure (inches of Hg)      <
>     WCI    - Wind Chill Index                            <
>     VSB    - VISIBILITY IN MILES                         <
>     HX     - HEAT INDEX                                  <
>     TC     - TEMPERATURE IN CELSIUS                      <
>     VRB    - VARIABLE WIND DIRECTION                     <
>                                                          <
>>>>>>>>>>>>>>>>>>>>>>>>>>>> KEY <<<<<<<<<<<<<<<<<<<<<<<<<<<




USA.gov is the U.S. government's official web portal to all federal, state and local government web resources and services.